Flag for U.S.A. Weather past 2 weeks in Columbia, South Carolina, U.S.A.

Now
54 °F

Clear.


Feels Like: 54 °F
Forecast: 48 / 67 °F
Wind: No wind

Location: Columbia Owens Downtown Airport

Current Time: Oct 22, 2014 at 4:06:24 AM

Latest Report: Oct 22, 2014 at 2:53 AM


Visibility: 10 mi

Pressure: 29.98 "Hg

Humidity: 67%

Dew point: 43 °F

Location of ColumbiaLocation

Historic Weather in Columbia — Graph

°F

Columbia temperature yesterday

Maximum temperature yesterday: 79 °F (at 4:53 PM)
Minimum temperature yesterday: 51 °F (at 7:53 AM)
Average temperature yesterday: 64 °F

Past Weeks' High & Low Weather Summary

 TemperatureHumidityPressure
High89 °F (Oct 11, 4:53 PM)93% (Oct 9, 7:53 AM)30.22 "Hg (Oct 9, 7:53 AM)
Low46 °F (Oct 20, 7:53 AM)30% (Oct 18, 3:53 PM)29.79 "Hg (Oct 18, 2:53 PM)
Average69 °F70%30.01 "Hg
* Reported Oct 7 2:53 AM — Oct 22 2:53 AM, Columbia, Weather by CustomWeather, © 2014

Note: Actual official high and low records may vary slightly from our data, if they occured in-between our weather recording intervals... More about our weather records

Advertising

Columbia weather history for previous 24 hours

 ConditionsComfort  
Time TempWeatherWind HumidityBarometerVisibility
2:53 AM
Oct 22
54 °FClear.No wind67%29.98 "Hg10 mi
1:53 AM59 °FClear.No wind54%29.97 "Hg10 mi
12:53 AM61 °FClear.3 mph50%29.97 "Hg10 mi
11:53 PM
Oct 21
62 °FClear.No wind50%29.96 "Hg10 mi
10:53 PM65 °FClear.No wind45%29.95 "Hg10 mi
9:53 PM67 °FClear.6 mph49%29.94 "Hg10 mi
8:53 PM63 °FClear.No wind70%29.91 "Hg10 mi
7:53 PM66 °FPassing clouds.No wind63%29.90 "Hg10 mi
6:53 PM73 °FSunny.5 mph44%29.88 "Hg10 mi
5:53 PM77 °FSunny.10 mph35%29.86 "Hg10 mi
4:53 PM79 °FSunny.10 mph30%29.85 "Hg10 mi
3:53 PM78 °FSunny.8 mph30%29.85 "Hg10 mi
2:53 PM78 °FSunny.9 mph31%29.87 "Hg10 mi
1:53 PM77 °FSunny.7 mph33%29.90 "Hg10 mi
12:53 PM74 °FSunny.12 mph35%29.93 "Hg10 mi
11:53 AM71 °FSunny.6 mph49%29.96 "Hg10 mi
10:53 AM67 °FSunny.5 mph61%29.97 "Hg10 mi
9:53 AM61 °FSunny.No wind75%29.99 "Hg10 mi
8:53 AM56 °FSunny.No wind84%29.98 "Hg10 mi
7:53 AM51 °FClear.No wind89%29.97 "Hg10 mi
6:53 AM52 °FClear.No wind89%29.96 "Hg10 mi
5:53 AM52 °FClear.No wind89%29.96 "Hg10 mi
4:53 AM53 °FClear.No wind89%29.95 "Hg10 mi
Weather by CustomWeather, © 2014

See weather overviewHow to use our weather pages